Location: Arbon
(43.0005°N, 0.7472°E)
Time: 17:07:43
(UTC+00:00)

Cosmos 1908 - Pass Details

Date: 07 August 2020
Orbit: 510 x 531 km, 82.5° (Epoch: 22 September)

Event Time Altitude Azimuth Distance (km) Brightness Sun altitude
Exits shadow 03:38:06 - 180° (S) 1,999 5.8 -12.9°
Reaches altitude 10° 03:38:40 10° 179° (S) 1,771 5.6 -12.8°
Maximum altitude 03:42:32 69° 96° (E) 572 3.5 -12.2°
Drops below altitude 10° 03:46:27 10° 13° (NNE) 1,791 6.7 -11.7°
Sets 03:48:36 0° 11° (N) 2,687 7.6 -11.3°
